Year,Month,Day,Hour,Minute,Value (Times are PST for temperature in C)
2019,01,17,00,00,8.00
2019,01,17,00,01,7.90
2019,01,17,00,02,7.80
2019,01,17,00,03,7.80
2019,01,17,00,04,7.80
2019,01,17,00,05,7.80
2019,01,17,00,06,7.80
2019,01,17,00,07,7.70
2019,01,17,00,08,7.70
2019,01,17,00,09,7.70
2019,01,17,00,10,7.70
2019,01,17,00,11,7.70
2019,01,17,00,12,7.70
2019,01,17,00,13,7.80
2019,01,17,00,14,7.80
2019,01,17,00,15,7.90
2019,01,17,00,16,8.00
2019,01,17,00,17,8.10
2019,01,17,00,18,8.10
2019,01,17,00,19,8.20
2019,01,17,00,20,8.20
2019,01,17,00,21,8.20
2019,01,17,00,22,8.20
2019,01,17,00,23,8.20
2019,01,17,00,24,8.20
2019,01,17,00,25,8.10
2019,01,17,00,26,8.10
2019,01,17,00,27,8.10
2019,01,17,00,28,8.00
2019,01,17,00,29,8.00
2019,01,17,00,30,7.90
2019,01,17,00,31,7.90
2019,01,17,00,32,7.90
2019,01,17,00,33,7.90
2019,01,17,00,34,7.80
2019,01,17,00,35,7.80
2019,01,17,00,36,7.80
2019,01,17,00,37,7.80
2019,01,17,00,38,7.80
2019,01,17,00,39,7.80
2019,01,17,00,40,7.80
2019,01,17,00,41,7.80
2019,01,17,00,42,7.80
2019,01,17,00,43,7.80
2019,01,17,00,44,7.80
2019,01,17,00,45,7.90
2019,01,17,00,46,7.90
2019,01,17,00,47,7.90
2019,01,17,00,48,7.90
2019,01,17,00,49,7.90
2019,01,17,00,50,7.90
2019,01,17,00,51,7.90
2019,01,17,00,52,7.90
2019,01,17,00,53,7.90
2019,01,17,00,54,7.90
2019,01,17,00,55,7.80
2019,01,17,00,56,7.80
2019,01,17,00,57,7.70
2019,01,17,00,58,7.70
2019,01,17,00,59,7.70
2019,01,17,01,00,7.60
2019,01,17,01,01,7.60
2019,01,17,01,02,7.50
2019,01,17,01,03,7.50
2019,01,17,01,04,7.50
2019,01,17,01,05,7.40
2019,01,17,01,06,7.40
2019,01,17,01,07,7.40
2019,01,17,01,08,7.40
2019,01,17,01,09,7.40
2019,01,17,01,10,7.40
2019,01,17,01,11,7.40
2019,01,17,01,12,7.40
2019,01,17,01,13,7.40
2019,01,17,01,14,7.50
2019,01,17,01,15,7.50
2019,01,17,01,16,7.60
2019,01,17,01,17,7.60
2019,01,17,01,18,7.60
2019,01,17,01,19,7.60
2019,01,17,01,20,7.60
2019,01,17,01,21,7.60
2019,01,17,01,22,7.60
2019,01,17,01,23,7.60
2019,01,17,01,24,7.60
2019,01,17,01,25,7.60
2019,01,17,01,26,7.60
2019,01,17,01,27,7.60
2019,01,17,01,28,7.50
2019,01,17,01,29,7.50
2019,01,17,01,30,7.50
2019,01,17,01,31,7.50
2019,01,17,01,32,7.50
2019,01,17,01,33,7.50
2019,01,17,01,34,7.50
2019,01,17,01,35,7.40
2019,01,17,01,36,7.40
2019,01,17,01,37,7.40
2019,01,17,01,38,7.40
2019,01,17,01,39,7.40
2019,01,17,01,40,7.30
2019,01,17,01,41,7.30
2019,01,17,01,42,7.30
2019,01,17,01,43,7.30
2019,01,17,01,44,7.30
2019,01,17,01,45,7.30
2019,01,17,01,46,7.20
2019,01,17,01,47,7.20
2019,01,17,01,48,7.20
2019,01,17,01,49,7.20
2019,01,17,01,50,7.20
2019,01,17,01,51,7.10
2019,01,17,01,52,7.10
2019,01,17,01,53,7.10
2019,01,17,01,54,7.10
2019,01,17,01,55,7.00
2019,01,17,01,56,7.00
2019,01,17,01,57,6.90
2019,01,17,01,58,6.90
2019,01,17,01,59,6.80
2019,01,17,02,00,6.80
2019,01,17,02,01,6.80
2019,01,17,02,02,6.80
2019,01,17,02,03,6.70
2019,01,17,02,04,6.70
2019,01,17,02,05,6.70
2019,01,17,02,06,6.60
2019,01,17,02,07,6.60
2019,01,17,02,08,6.60
2019,01,17,02,09,6.60
2019,01,17,02,10,6.50
2019,01,17,02,11,6.50
2019,01,17,02,12,6.50
2019,01,17,02,13,6.50
2019,01,17,02,14,6.50
2019,01,17,02,15,6.50
2019,01,17,02,16,6.50
2019,01,17,02,17,6.50
2019,01,17,02,18,6.50
2019,01,17,02,19,6.50
2019,01,17,02,20,6.50
2019,01,17,02,21,6.50
2019,01,17,02,22,6.50
2019,01,17,02,23,6.50
2019,01,17,02,24,6.50
2019,01,17,02,25,6.40
2019,01,17,02,26,6.50
2019,01,17,02,27,6.50
2019,01,17,02,28,6.40
2019,01,17,02,29,6.40
2019,01,17,02,30,6.40
2019,01,17,02,31,6.40
2019,01,17,02,32,6.40
2019,01,17,02,33,6.40
2019,01,17,02,34,6.40
2019,01,17,02,35,6.40
2019,01,17,02,36,6.40
2019,01,17,02,37,6.40
2019,01,17,02,38,6.40
2019,01,17,02,39,6.40
2019,01,17,02,40,6.40
2019,01,17,02,41,6.40
2019,01,17,08,37,7.30
2019,01,17,08,38,7.30
2019,01,17,08,39,7.30
2019,01,17,08,40,7.30
2019,01,17,08,41,7.30
2019,01,17,08,42,7.30
2019,01,17,08,43,7.30
2019,01,17,08,44,7.30
2019,01,17,08,45,7.30
2019,01,17,08,46,7.30
2019,01,17,08,47,7.30
2019,01,17,08,48,7.40
2019,01,17,08,49,7.40
2019,01,17,08,50,7.40
2019,01,17,08,51,7.40
2019,01,17,08,52,7.40
2019,01,17,08,53,7.40
2019,01,17,08,54,7.40
2019,01,17,08,55,7.40
2019,01,17,08,56,7.40
2019,01,17,08,57,7.40
2019,01,17,08,58,7.40
2019,01,17,08,59,7.40
2019,01,17,09,00,7.40
2019,01,17,09,01,7.50
2019,01,17,09,02,7.50
2019,01,17,09,03,7.50
2019,01,17,09,04,7.50
2019,01,17,09,05,7.50
2019,01,17,09,06,7.50
2019,01,17,09,07,7.50
2019,01,17,09,08,7.60
2019,01,17,09,09,7.60
2019,01,17,09,10,7.60
2019,01,17,09,11,7.60
2019,01,17,09,12,7.60
2019,01,17,09,13,7.60
2019,01,17,09,14,7.60
2019,01,17,09,15,7.60
2019,01,17,09,16,7.60
2019,01,17,09,17,7.60
2019,01,17,09,18,7.60
2019,01,17,09,19,7.60
2019,01,17,09,20,7.60
2019,01,17,09,21,7.60
2019,01,17,09,22,7.60
2019,01,17,09,23,7.60
2019,01,17,09,24,7.60
2019,01,17,09,25,7.60
2019,01,17,09,26,7.60
2019,01,17,09,27,7.60
2019,01,17,09,28,7.60
2019,01,17,09,29,7.70
2019,01,17,09,30,7.70
2019,01,17,09,31,7.70
2019,01,17,09,32,7.70
2019,01,17,09,33,7.70
2019,01,17,09,34,7.70
2019,01,17,09,35,7.70
2019,01,17,09,36,7.70
2019,01,17,09,37,7.80
2019,01,17,09,38,7.80
2019,01,17,09,39,7.80
2019,01,17,09,40,7.80
2019,01,17,09,41,7.80
2019,01,17,09,42,7.90
2019,01,17,09,43,7.90
2019,01,17,09,44,7.90
2019,01,17,09,45,8.00
2019,01,17,09,46,8.00
2019,01,17,09,47,8.00
2019,01,17,09,48,8.10
2019,01,17,09,49,8.10
2019,01,17,09,50,8.10
2019,01,17,09,51,8.20
2019,01,17,09,52,8.20
2019,01,17,09,53,8.20
2019,01,17,09,54,8.30
2019,01,17,09,55,8.30
2019,01,17,09,56,8.30
2019,01,17,09,57,8.30
2019,01,17,09,58,8.40
2019,01,17,09,59,8.40
2019,01,17,10,00,8.40
2019,01,17,10,01,8.30
2019,01,17,10,02,8.40
2019,01,17,10,03,8.30
2019,01,17,10,04,8.30
2019,01,17,10,05,8.30
2019,01,17,10,06,8.30
2019,01,17,10,07,8.30
2019,01,17,10,08,8.30
2019,01,17,10,09,8.20
2019,01,17,10,10,8.20
2019,01,17,10,11,8.20
2019,01,17,10,12,8.20
2019,01,17,10,13,8.20
2019,01,17,10,14,8.20
2019,01,17,10,15,8.20
2019,01,17,10,16,8.30
2019,01,17,10,17,8.30
2019,01,17,10,18,8.30
2019,01,17,10,19,8.30
2019,01,17,10,20,8.30
2019,01,17,10,21,8.40
2019,01,17,10,22,8.40
2019,01,17,10,23,8.40
2019,01,17,10,24,8.40
2019,01,17,10,25,8.50
2019,01,17,10,26,8.50
2019,01,17,10,27,8.60
2019,01,17,10,28,8.60
2019,01,17,10,29,8.60
2019,01,17,10,30,8.60
2019,01,17,10,31,8.70
2019,01,17,10,32,8.70
2019,01,17,10,33,8.70
2019,01,17,10,34,8.80
2019,01,17,10,35,8.80
2019,01,17,10,36,8.80
2019,01,17,10,37,8.80
2019,01,17,10,38,8.90
2019,01,17,10,39,8.90
2019,01,17,10,40,8.90
2019,01,17,10,41,8.90
2019,01,17,10,42,9.00
2019,01,17,10,43,9.00
2019,01,17,10,44,9.00
2019,01,17,10,45,9.10
2019,01,17,10,46,9.10
2019,01,17,10,47,9.10
2019,01,17,10,48,9.10
2019,01,17,10,49,9.10
2019,01,17,10,50,9.10
2019,01,17,10,51,9.10
2019,01,17,10,52,9.10
2019,01,17,10,53,9.10
2019,01,17,10,54,9.00
2019,01,17,10,55,9.10
2019,01,17,10,56,9.00
2019,01,17,10,57,9.00
2019,01,17,10,58,9.10
2019,01,17,10,59,9.10
2019,01,17,11,00,9.10
2019,01,17,11,01,9.10
2019,01,17,11,02,9.10
2019,01,17,11,03,9.10
2019,01,17,11,04,9.10
2019,01,17,11,05,9.20
2019,01,17,11,06,9.20
2019,01,17,11,07,9.20
2019,01,17,11,08,9.30
2019,01,17,11,09,9.30
2019,01,17,11,10,9.30
2019,01,17,11,11,9.40
2019,01,17,11,12,9.40
2019,01,17,11,13,9.40
2019,01,17,11,14,9.40
2019,01,17,11,15,9.40
2019,01,17,11,16,9.40
2019,01,17,11,17,9.50
2019,01,17,11,18,9.60
2019,01,17,11,19,9.60
2019,01,17,11,20,9.70
2019,01,17,11,21,9.80
2019,01,17,11,22,9.80
2019,01,17,11,23,9.80
2019,01,17,11,24,9.90
2019,01,17,11,25,9.90
2019,01,17,11,26,9.90
2019,01,17,11,27,9.90
2019,01,17,11,28,9.90
2019,01,17,11,29,9.80
2019,01,17,11,30,9.80
2019,01,17,11,31,9.80
2019,01,17,11,32,9.80
2019,01,17,11,33,9.80
2019,01,17,11,34,9.80
2019,01,17,11,35,9.80
2019,01,17,11,36,9.80
2019,01,17,11,37,9.80
2019,01,17,11,38,9.80
2019,01,17,11,39,9.80
2019,01,17,11,40,9.80
2019,01,17,11,41,9.80
2019,01,17,11,42,9.80
2019,01,17,11,43,9.80
2019,01,17,11,44,9.80
2019,01,17,11,45,9.80
2019,01,17,11,46,9.80
2019,01,17,11,47,9.80
2019,01,17,11,48,9.80
2019,01,17,11,49,9.80
2019,01,17,11,50,9.90
2019,01,17,11,51,9.90
2019,01,17,11,52,9.90
2019,01,17,11,53,10.00
2019,01,17,11,54,10.00
2019,01,17,11,55,10.10
2019,01,17,11,56,10.10
2019,01,17,11,57,10.10
2019,01,17,11,58,10.10
2019,01,17,11,59,10.10
2019,01,17,12,00,10.10
2019,01,17,12,01,10.10
2019,01,17,12,02,10.10
2019,01,17,12,03,10.10
2019,01,17,12,04,10.10
2019,01,17,12,05,10.10
2019,01,17,12,06,10.10
2019,01,17,12,07,10.10
2019,01,17,12,08,10.10
2019,01,17,12,09,10.10
2019,01,17,12,10,10.10
2019,01,17,12,11,10.10
2019,01,17,12,12,10.10
2019,01,17,12,13,10.10
2019,01,17,12,14,10.10
2019,01,17,12,15,10.20
2019,01,17,12,16,10.20
2019,01,17,12,17,10.20
2019,01,17,12,18,10.20
2019,01,17,12,19,10.20
2019,01,17,12,20,10.30
2019,01,17,12,21,10.30
2019,01,17,12,22,10.30
2019,01,17,12,23,10.40
2019,01,17,12,24,10.40
2019,01,17,12,25,10.50
2019,01,17,12,26,10.50
2019,01,17,12,27,10.60
2019,01,17,12,28,10.60
2019,01,17,12,29,10.60
2019,01,17,12,30,10.70
2019,01,17,12,31,10.70
2019,01,17,12,32,10.70
2019,01,17,12,33,10.80
2019,01,17,12,34,10.80
2019,01,17,12,35,10.80
2019,01,17,12,36,10.80
2019,01,17,12,37,10.80
2019,01,17,12,38,10.80
2019,01,17,12,39,10.80
2019,01,17,12,40,10.80
2019,01,17,12,41,10.80
2019,01,17,12,42,10.70
2019,01,17,12,43,10.70
2019,01,17,12,44,10.70
2019,01,17,12,45,10.70
2019,01,17,12,46,10.70
2019,01,17,12,47,10.70
2019,01,17,12,48,10.70
2019,01,17,12,49,10.70
2019,01,17,12,50,10.70
2019,01,17,12,51,10.70
2019,01,17,12,52,10.70
2019,01,17,12,53,10.70
2019,01,17,12,54,10.70
2019,01,17,12,55,10.70
2019,01,17,12,56,10.70
2019,01,17,12,57,10.70
2019,01,17,12,58,10.70
2019,01,17,12,59,10.70
2019,01,17,13,00,10.70
2019,01,17,13,01,10.70
2019,01,17,13,02,10.70
2019,01,17,13,03,10.70
2019,01,17,13,04,10.70
2019,01,17,13,05,10.70
2019,01,17,13,06,10.70
2019,01,17,13,07,10.70
2019,01,17,13,08,10.70
2019,01,17,13,09,10.70
2019,01,17,13,10,10.70
2019,01,17,13,11,10.70
2019,01,17,13,12,10.70
2019,01,17,13,13,10.70
2019,01,17,13,14,10.70
2019,01,17,13,15,10.70
2019,01,17,13,16,10.70
2019,01,17,13,17,10.70
2019,01,17,13,18,10.70
2019,01,17,13,19,10.70
2019,01,17,13,20,10.70
2019,01,17,13,21,10.70
2019,01,17,13,22,10.70
2019,01,17,13,23,10.70
2019,01,17,13,24,10.60
2019,01,17,13,25,10.60
2019,01,17,13,26,10.70
2019,01,17,13,27,10.70
2019,01,17,13,28,10.60
2019,01,17,13,29,10.60
2019,01,17,13,30,10.60
2019,01,17,13,31,10.60
2019,01,17,13,32,10.60
2019,01,17,13,33,10.60
2019,01,17,13,34,10.60
2019,01,17,13,35,10.60
2019,01,17,13,36,10.60
2019,01,17,13,37,10.60
2019,01,17,13,38,10.60
2019,01,17,13,39,10.60
2019,01,17,13,40,10.50
2019,01,17,13,41,10.50
2019,01,17,13,42,10.50
2019,01,17,13,43,10.50
2019,01,17,13,44,10.50
2019,01,17,13,45,10.50
2019,01,17,13,46,10.50
2019,01,17,13,47,10.50
2019,01,17,13,48,10.50
2019,01,17,13,49,10.50
2019,01,17,13,50,10.50
2019,01,17,13,51,10.50
2019,01,17,13,52,10.50
2019,01,17,13,53,10.50
2019,01,17,13,54,10.50
2019,01,17,13,55,10.50
2019,01,17,13,56,10.50
2019,01,17,13,57,10.50
2019,01,17,13,58,10.50
2019,01,17,13,59,10.50
2019,01,17,14,00,10.50
2019,01,17,14,01,10.50
2019,01,17,14,02,10.50
2019,01,17,14,03,10.50
2019,01,17,14,04,10.50
2019,01,17,14,05,10.50
2019,01,17,14,06,10.50
2019,01,17,14,07,10.50
2019,01,17,14,08,10.50
2019,01,17,14,09,10.50
2019,01,17,14,10,10.50
2019,01,17,14,11,10.50
2019,01,17,14,12,10.50
2019,01,17,14,13,10.40
2019,01,17,14,14,10.50
2019,01,17,14,15,10.50
2019,01,17,14,16,10.50
2019,01,17,14,17,10.50
2019,01,17,14,18,10.50
2019,01,17,14,19,10.50
2019,01,17,14,20,10.50
2019,01,17,14,21,10.50
2019,01,17,14,22,10.60
2019,01,17,14,23,10.60
2019,01,17,14,24,10.60
2019,01,17,14,25,10.60
2019,01,17,14,26,10.60
2019,01,17,14,27,10.60
2019,01,17,14,28,10.60
2019,01,17,14,29,10.60
2019,01,17,14,30,10.60
2019,01,17,14,31,10.60
2019,01,17,14,32,10.70
2019,01,17,14,33,10.70
2019,01,17,14,34,10.60
2019,01,17,14,35,10.60
2019,01,17,14,36,10.70
2019,01,17,14,37,10.60
2019,01,17,14,38,10.60
2019,01,17,14,39,10.60
2019,01,17,14,40,10.60
2019,01,17,14,41,10.60
2019,01,17,14,42,10.70
2019,01,17,14,43,10.60
2019,01,17,14,44,10.70
2019,01,17,14,45,10.70
2019,01,17,14,46,10.70
2019,01,17,14,47,10.70
2019,01,17,14,48,10.70
2019,01,17,14,49,10.70
2019,01,17,14,50,10.70
2019,01,17,14,51,10.70
2019,01,17,14,52,10.70
2019,01,17,14,53,10.70
2019,01,17,14,54,10.70
2019,01,17,14,55,10.70
2019,01,17,14,56,10.70
2019,01,17,14,57,10.70
2019,01,17,14,58,10.80
2019,01,17,14,59,10.80
2019,01,17,15,00,10.80
2019,01,17,15,01,10.80
2019,01,17,15,02,10.80
2019,01,17,15,03,10.80
2019,01,17,15,04,10.80
2019,01,17,15,05,10.80
2019,01,17,15,06,10.80
2019,01,17,15,07,10.80
2019,01,17,15,08,10.80
2019,01,17,15,09,10.80
2019,01,17,15,10,10.80
2019,01,17,15,11,10.80
2019,01,17,15,12,10.80
2019,01,17,15,13,10.80
2019,01,17,15,14,10.80
2019,01,17,15,15,10.80
2019,01,17,15,16,10.80
2019,01,17,15,17,10.80
2019,01,17,15,18,10.80
2019,01,17,15,19,10.80
2019,01,17,15,20,10.80
2019,01,17,15,21,10.80
2019,01,17,15,22,10.80
2019,01,17,15,23,10.80
2019,01,17,15,24,10.80
2019,01,17,15,25,10.80
2019,01,17,15,26,10.80
2019,01,17,15,27,10.80
2019,01,17,15,28,10.80
2019,01,17,15,29,10.80
2019,01,17,15,30,10.80
2019,01,17,15,31,10.80
2019,01,17,15,32,10.80
2019,01,17,15,33,10.80
2019,01,17,15,34,10.80
2019,01,17,15,35,10.80
2019,01,17,15,36,10.80
2019,01,17,15,37,10.80
2019,01,17,15,38,10.80
2019,01,17,15,39,10.80
2019,01,17,15,40,10.80
2019,01,17,15,41,10.80
2019,01,17,15,42,10.80
2019,01,17,15,43,10.80
2019,01,17,15,44,10.80
2019,01,17,15,45,10.80
2019,01,17,15,46,10.80
2019,01,17,15,47,10.80
2019,01,17,15,48,10.80
2019,01,17,15,49,10.80
2019,01,17,15,50,10.80
2019,01,17,15,51,10.80
2019,01,17,15,52,10.80
2019,01,17,15,53,10.80
2019,01,17,15,54,10.80
2019,01,17,15,55,10.80
2019,01,17,15,56,10.80
2019,01,17,15,57,10.80
2019,01,17,15,58,10.80
2019,01,17,15,59,10.80
2019,01,17,16,00,10.80
2019,01,17,16,01,10.80
2019,01,17,16,02,10.80
2019,01,17,16,03,10.80
2019,01,17,16,04,10.80
2019,01,17,16,05,10.80
2019,01,17,16,06,10.70
2019,01,17,16,07,10.70
2019,01,17,16,08,10.70
2019,01,17,16,09,10.70
2019,01,17,16,10,10.70
2019,01,17,16,11,10.70
2019,01,17,16,12,10.70
2019,01,17,16,13,10.70
2019,01,17,16,14,10.70
2019,01,17,16,15,10.70
2019,01,17,16,16,10.70
2019,01,17,16,17,10.70
2019,01,17,16,18,10.70
2019,01,17,16,19,10.70
2019,01,17,16,20,10.60
2019,01,17,16,21,10.60
2019,01,17,16,22,10.60
2019,01,17,16,23,10.60
2019,01,17,16,24,10.60
2019,01,17,16,25,10.60
2019,01,17,16,26,10.60
2019,01,17,16,27,10.60
2019,01,17,16,28,10.60
2019,01,17,16,29,10.60
2019,01,17,16,30,10.60
2019,01,17,16,31,10.60
2019,01,17,16,32,10.60
2019,01,17,16,33,10.60
2019,01,17,16,34,10.60
2019,01,17,16,35,10.60
2019,01,17,16,36,10.60
2019,01,17,16,37,10.60
2019,01,17,16,38,10.50
2019,01,17,16,39,10.50
2019,01,17,16,40,10.50
2019,01,17,16,41,10.50
2019,01,17,16,42,10.50
2019,01,17,16,43,10.50
2019,01,17,16,44,10.50
2019,01,17,16,45,10.50
2019,01,17,16,46,10.40
2019,01,17,16,47,10.50
2019,01,17,16,48,10.40
2019,01,17,16,49,10.40
2019,01,17,16,50,10.40
2019,01,17,16,51,10.40
2019,01,17,16,52,10.40
2019,01,17,16,53,10.40
2019,01,17,16,54,10.40
2019,01,17,16,55,10.40
2019,01,17,16,56,10.40
2019,01,17,16,57,10.40
2019,01,17,16,58,10.40
2019,01,17,16,59,10.40
2019,01,17,17,00,10.40
2019,01,17,17,01,10.40
2019,01,17,17,02,10.40
2019,01,17,17,03,10.40
2019,01,17,17,04,10.40
2019,01,17,17,05,10.40
2019,01,17,17,06,10.40
2019,01,17,17,07,10.30
2019,01,17,17,08,10.40
2019,01,17,17,09,10.30
2019,01,17,17,10,10.40
2019,01,17,17,11,10.40
2019,01,17,17,12,10.40
2019,01,17,17,13,10.40
2019,01,17,17,14,10.40
2019,01,17,17,15,10.40
2019,01,17,17,16,10.40
2019,01,17,17,17,10.40
2019,01,17,17,18,10.40
2019,01,17,17,19,10.40
2019,01,17,17,20,10.40
2019,01,17,17,21,10.40
2019,01,17,17,22,10.40
2019,01,17,17,23,10.40
2019,01,17,17,24,10.40
2019,01,17,17,25,10.40
2019,01,17,17,26,10.30
2019,01,17,17,27,10.40
2019,01,17,17,28,10.40
2019,01,17,17,29,10.30
2019,01,17,17,30,10.30
2019,01,17,17,31,10.30
2019,01,17,17,32,10.30
2019,01,17,17,33,10.30
2019,01,17,17,34,10.30
2019,01,17,17,35,10.30
2019,01,17,17,36,10.30
2019,01,17,17,37,10.30
2019,01,17,17,38,10.30
2019,01,17,17,39,10.30
2019,01,17,17,40,10.30
2019,01,17,17,41,10.30
2019,01,17,17,42,10.30
2019,01,17,17,43,10.30
2019,01,17,17,44,10.30
2019,01,17,17,45,10.30
2019,01,17,17,46,10.20
2019,01,17,17,47,10.20
2019,01,17,17,48,10.20
2019,01,17,17,49,10.20
2019,01,17,17,50,10.20
2019,01,17,17,51,10.20
2019,01,17,17,52,10.20
2019,01,17,17,53,10.20
2019,01,17,17,54,10.20
2019,01,17,17,55,10.20
2019,01,17,17,56,10.20
2019,01,17,17,57,10.20
2019,01,17,17,58,10.20
2019,01,17,17,59,10.20
2019,01,17,18,00,10.20
2019,01,17,18,01,10.20
2019,01,17,18,02,10.20
2019,01,17,18,03,10.20
2019,01,17,18,04,10.20
2019,01,17,18,05,10.20
2019,01,17,18,06,10.30
2019,01,17,18,07,10.30
2019,01,17,18,08,10.30
2019,01,17,18,09,10.30
2019,01,17,18,10,10.40
2019,01,17,18,11,10.40
2019,01,17,18,12,10.40
2019,01,17,18,13,10.40
2019,01,17,18,14,10.40
2019,01,17,18,15,10.40
2019,01,17,18,16,10.40
2019,01,17,18,17,10.40
2019,01,17,18,18,10.40
2019,01,17,18,19,10.40
2019,01,17,18,20,10.40
2019,01,17,18,21,10.40
2019,01,17,18,22,10.40
2019,01,17,18,23,10.50
2019,01,17,18,24,10.40
2019,01,17,18,25,10.50
2019,01,17,18,26,10.50
2019,01,17,18,27,10.50
2019,01,17,18,28,10.40
2019,01,17,18,29,10.40
2019,01,17,18,30,10.40
2019,01,17,18,31,10.40
2019,01,17,18,32,10.40
2019,01,17,18,33,10.40
2019,01,17,18,34,10.30
2019,01,17,18,35,10.30
2019,01,17,18,36,10.30
2019,01,17,18,37,10.30
2019,01,17,18,38,10.30
2019,01,17,18,39,10.30
2019,01,17,18,40,10.20
2019,01,17,18,41,10.20
2019,01,17,18,42,10.20
2019,01,17,18,43,10.20
2019,01,17,18,44,10.20
2019,01,17,18,45,10.20
2019,01,17,18,46,10.10
2019,01,17,18,47,10.10
2019,01,17,18,48,10.10
2019,01,17,18,49,10.10
2019,01,17,18,50,10.10
2019,01,17,18,51,10.10
2019,01,17,18,52,10.10
2019,01,17,18,53,10.00
2019,01,17,18,54,10.00
2019,01,17,18,55,10.00
2019,01,17,18,56,10.00
2019,01,17,18,57,10.00
2019,01,17,18,58,9.90
2019,01,17,18,59,9.90
2019,01,17,19,00,9.90
2019,01,17,19,01,9.90
2019,01,17,19,02,9.90
2019,01,17,19,03,9.90
2019,01,17,19,04,9.90
2019,01,17,19,05,9.90
2019,01,17,19,06,9.90
2019,01,17,19,07,9.90
2019,01,17,19,08,9.90
2019,01,17,19,09,9.90
2019,01,17,19,10,9.80
2019,01,17,19,11,9.80
2019,01,17,19,12,9.80
2019,01,17,19,13,9.80
2019,01,17,19,14,9.80
2019,01,17,19,15,9.80
2019,01,17,19,16,9.80
2019,01,17,19,17,9.80
2019,01,17,19,18,9.80
2019,01,17,19,19,9.80
2019,01,17,19,20,9.80
2019,01,17,19,21,9.80
2019,01,17,19,22,9.80
2019,01,17,19,23,9.80
2019,01,17,19,24,9.80
2019,01,17,19,25,9.80
2019,01,17,19,26,9.70
2019,01,17,19,27,9.70
2019,01,17,19,28,9.70
2019,01,17,19,29,9.70
2019,01,17,19,30,9.70
2019,01,17,19,31,9.70
2019,01,17,19,32,9.60
2019,01,17,19,33,9.60
2019,01,17,19,34,9.60
2019,01,17,19,35,9.60
2019,01,17,19,36,9.50
2019,01,17,19,37,9.50
2019,01,17,19,38,9.50
2019,01,17,19,39,9.50
2019,01,17,19,40,9.40
2019,01,17,19,41,9.40
2019,01,17,19,42,9.40
2019,01,17,19,43,9.40
2019,01,17,19,44,9.40
2019,01,17,19,45,9.40
2019,01,17,19,46,9.40
2019,01,17,19,47,9.40
2019,01,17,19,48,9.30
2019,01,17,19,49,9.30
2019,01,17,19,50,9.30
2019,01,17,19,51,9.30
2019,01,17,19,52,9.30
2019,01,17,19,53,9.30
2019,01,17,19,54,9.30
2019,01,17,19,55,9.20
2019,01,17,19,56,9.20
2019,01,17,19,57,9.20
2019,01,17,19,58,9.20
2019,01,17,19,59,9.20
2019,01,17,20,00,9.20
2019,01,17,20,01,9.20
2019,01,17,20,02,9.20
2019,01,17,20,03,9.20
2019,01,17,20,04,9.20
2019,01,17,20,05,9.20
2019,01,17,20,06,9.20
2019,01,17,20,07,9.20
2019,01,17,20,08,9.20
2019,01,17,20,09,9.20
2019,01,17,20,10,9.20
2019,01,17,20,11,9.20
2019,01,17,20,12,9.10
2019,01,17,20,13,9.10
2019,01,17,20,14,9.10
2019,01,17,20,15,9.10
2019,01,17,20,16,9.10
2019,01,17,20,17,9.10
2019,01,17,20,18,9.10
2019,01,17,20,19,9.10
2019,01,17,20,20,9.10
2019,01,17,20,21,9.10
2019,01,17,20,22,9.10
2019,01,17,20,23,9.00
2019,01,17,20,24,9.10
2019,01,17,20,25,9.10
2019,01,17,20,26,9.10
2019,01,17,20,27,9.10
2019,01,17,20,28,9.10
2019,01,17,20,29,9.10
2019,01,17,20,30,9.10
2019,01,17,20,31,9.10
2019,01,17,20,32,9.10
2019,01,17,20,33,9.10
2019,01,17,20,34,9.10
2019,01,17,20,35,9.10
2019,01,17,20,36,9.10
2019,01,17,20,37,9.10
2019,01,17,20,38,9.10
2019,01,17,20,39,9.10
2019,01,17,20,40,9.10
2019,01,17,20,41,9.10
2019,01,17,20,42,9.10
2019,01,17,20,43,9.10
2019,01,17,20,44,9.10
2019,01,17,20,45,9.10
2019,01,17,20,46,9.10
2019,01,17,20,47,9.10
2019,01,17,20,48,9.10
2019,01,17,20,49,9.10
2019,01,17,20,50,9.10
2019,01,17,20,51,9.10
2019,01,17,20,52,9.20
2019,01,17,20,53,9.20
2019,01,17,20,54,9.10
2019,01,17,20,55,9.10
2019,01,17,20,56,9.20
2019,01,17,20,57,9.20
2019,01,17,20,58,9.20
2019,01,17,20,59,9.20
2019,01,17,21,00,9.20
2019,01,17,21,01,9.20
2019,01,17,21,02,9.20
2019,01,17,21,03,9.20
2019,01,17,21,04,9.20
2019,01,17,21,05,9.20
2019,01,17,21,06,9.20
2019,01,17,21,07,9.20
2019,01,17,21,08,9.20
2019,01,17,21,09,9.20
2019,01,17,21,10,9.20
2019,01,17,21,11,9.20
2019,01,17,21,12,9.20
2019,01,17,21,13,9.20
2019,01,17,21,14,9.20
2019,01,17,21,15,9.20
2019,01,17,21,16,9.20
2019,01,17,21,17,9.20
2019,01,17,21,18,9.20
2019,01,17,21,19,9.20
2019,01,17,21,20,9.20
2019,01,17,21,21,9.20
2019,01,17,21,22,9.20
2019,01,17,21,23,9.20
2019,01,17,21,24,9.20
2019,01,17,21,25,9.20
2019,01,17,21,26,9.20
2019,01,17,21,27,9.20
2019,01,17,21,28,9.20
2019,01,17,21,29,9.20
2019,01,17,21,30,9.20
2019,01,17,21,31,9.20
2019,01,17,21,32,9.20
2019,01,17,21,33,9.20
2019,01,17,21,34,9.20
2019,01,17,21,35,9.20
2019,01,17,21,36,9.20
2019,01,17,21,37,9.20
2019,01,17,21,38,9.20
2019,01,17,21,39,9.20
2019,01,17,21,40,9.20
2019,01,17,21,41,9.20
2019,01,17,21,42,9.20
2019,01,17,21,43,9.20
2019,01,17,21,44,9.20
2019,01,17,21,45,9.20
2019,01,17,21,46,9.20
2019,01,17,21,47,9.20
2019,01,17,21,48,9.20
2019,01,17,21,49,9.20
2019,01,17,21,50,9.20
2019,01,17,21,51,9.20
2019,01,17,21,52,9.20
2019,01,17,21,53,9.20
2019,01,17,21,54,9.20
2019,01,17,21,55,9.20
2019,01,17,21,56,9.10
2019,01,17,21,57,9.10
2019,01,17,21,58,9.10
2019,01,17,21,59,9.10
2019,01,17,22,00,9.10
2019,01,17,22,01,9.10
2019,01,17,22,02,9.10
2019,01,17,22,03,9.10
2019,01,17,22,04,9.10
2019,01,17,22,05,9.10
2019,01,17,22,06,9.10
2019,01,17,22,07,9.10
2019,01,17,22,08,9.10
2019,01,17,22,09,9.10
2019,01,17,22,10,9.10
2019,01,17,22,11,9.10
2019,01,17,22,12,9.10
2019,01,17,22,13,9.00
2019,01,17,22,14,9.00
2019,01,17,22,15,9.00
2019,01,17,22,16,9.00
2019,01,17,22,17,9.00
2019,01,17,22,18,8.90
2019,01,17,22,19,8.90
2019,01,17,22,20,8.90
2019,01,17,22,21,8.90
2019,01,17,22,22,8.90
2019,01,17,22,23,8.90
2019,01,17,22,24,8.90
2019,01,17,22,25,8.90
2019,01,17,22,26,8.80
2019,01,17,22,27,8.80
2019,01,17,22,28,8.80
2019,01,17,22,29,8.80
2019,01,17,22,30,8.80
2019,01,17,22,31,8.80
2019,01,17,22,32,8.80
2019,01,17,22,33,8.80
2019,01,17,22,34,8.80
2019,01,17,22,35,8.80
2019,01,17,22,36,8.80
2019,01,17,22,37,8.80
2019,01,17,22,38,8.80
2019,01,17,22,39,8.80
2019,01,17,22,40,8.80
2019,01,17,22,41,8.80
2019,01,17,22,42,8.80
2019,01,17,22,43,8.80
2019,01,17,22,44,8.80
2019,01,17,22,45,8.80
2019,01,17,22,46,8.80
2019,01,17,22,47,8.80
2019,01,17,22,48,8.80
2019,01,17,22,49,8.80
2019,01,17,22,50,8.80
2019,01,17,22,51,8.80
2019,01,17,22,52,8.80
2019,01,17,22,53,8.80
2019,01,17,22,54,8.80
2019,01,17,22,55,8.80
2019,01,17,22,56,8.80
2019,01,17,22,57,8.80
2019,01,17,22,58,8.80
2019,01,17,22,59,8.80
2019,01,17,23,00,8.80
2019,01,17,23,01,8.80
2019,01,17,23,02,8.80
2019,01,17,23,03,8.80
2019,01,17,23,04,8.80
2019,01,17,23,05,8.80
2019,01,17,23,06,8.80
2019,01,17,23,07,8.80
2019,01,17,23,08,8.80
2019,01,17,23,09,8.80
2019,01,17,23,10,8.80
2019,01,17,23,11,8.80
2019,01,17,23,12,8.80
2019,01,17,23,13,8.80
2019,01,17,23,14,8.80
2019,01,17,23,15,8.80
2019,01,17,23,16,8.80
2019,01,17,23,17,8.80
2019,01,17,23,18,8.80
2019,01,17,23,19,8.80
2019,01,17,23,20,8.90
2019,01,17,23,21,8.90
2019,01,17,23,22,8.90
2019,01,17,23,23,8.90
2019,01,17,23,24,8.90
2019,01,17,23,25,8.90
2019,01,17,23,26,8.90
2019,01,17,23,27,8.90
2019,01,17,23,28,8.90
2019,01,17,23,29,8.90
2019,01,17,23,30,8.90
2019,01,17,23,31,8.90
2019,01,17,23,32,8.90
2019,01,17,23,33,8.90
2019,01,17,23,34,8.90
2019,01,17,23,35,8.90
2019,01,17,23,36,8.90
2019,01,17,23,37,8.90
2019,01,17,23,38,8.90
2019,01,17,23,39,8.90
2019,01,17,23,40,8.90
2019,01,17,23,41,8.90
2019,01,17,23,42,8.90